CZ-6A DEB, 61398

Orbit data source: Space-Track

CZ-6A DEB, 61398 is space debris in LEO originally from a launch on Tue, 06 Aug 2024 UTC launched from the Taiyaun Space Center, China (TSC). Debris objects in space refer to the collection of defunct objects orbiting the Earth. Examples of debris include non-operational satellites, rocket bodies, and fragments generated from explosions, collisions, or faulty payload assembly.

Loading next visibility...
Identifier
61398, 2024-140XP
Orbit
LEO
Country
Flag of CNCN / PRC
Related business
Manufacturer
SAST
Mission
Spacecraft
Bus & Motor
Unknown
Mass
Unknown
Launch date (UTC)
2024-08-06 (2 years ago)
Launch vehicle
Unknown
Launch site
Taiyaun Space Center, China (TSC)
Object type
Payload
Rocket body
Debris
Shape & HBR
Unknown shape, 0.1 m
Radar Cross Section
Small (<0.1 m²)

Expand to show TLE details & history
Last TLE update: 9 hours ago

TLE from 9 hours ago
0 CZ-6A DEB
1 61398U 24140XP  26130.15670948  .00000530  00000-0  29738-3 0  9990
2 61398  88.9620 278.1471 0099897 343.3926  16.3991 14.06755002 85444
Epoch: 2026-05-10T03:45Z
TLE epoch observation values (Epoch: 2026-05-10T03:45:39.699Z)
Latitude
-0.00003°
Longitude
-6.23214°
Altitude
804.11 km
Speed
7.487 km/s
True Right ascension
18h 32m 35s
True Declination
0° 00' 00"
Sunlit
Object was in full shadow at epoch
Visualization orbit readout
Latitude
Unknown
Longitude
Unknown
Altitude
Unknown
Speed
Unknown
Apparent Right ascension
Unknown
Apparent Declination
Unknown
Sunlit
N/A
Visualization observer readout
Local Sidereal Time
20:39:18
Azimuth
Unknown
Elevation
Unknown
Doppler factor
Unknown
Orbital elements
Apogee altitude
939.849 km
Perigee altitude
795.086 km
Semi-major axis
7,245.604 km
Eccentricity
0.00999
Inclination
88.962°
RAAN
278.1471°
Arg. of periapsis
343.3926°
True anomaly
16.7262°
Mean anomaly
16.3991°
Eccentric anomaly
16.56226°
Mean motion
3.5191 °/min
Orbital period
102.3 mins
BSTAR
0.00029738
Loading maneuver chart data...
Computing Atmospheric mass density...
Loading historical data...
Loading historical data...
Loading historical data...
Loading historical data...
Loading historical data...
Loading historical data...
Loading historical data...

Documentation

Showing up to 5 results
|